TimeCDT,TemperatureF,Dew PointF,Humidity,Sea Level PressureIn,VisibilityMPH,Wind Direction,Wind SpeedMPH,Gust SpeedMPH,PrecipitationIn,Events,Conditions,WindDirDegrees,DateUTC
12:15 AM,37.4,25.7,63,30.20,10.0,NNE,8.1,-,N/A,,Clear,20,2012-10-29 05:15:00
12:35 AM,35.4,25.7,68,30.20,10.0,NNE,8.1,-,N/A,,Clear,20,2012-10-29 05:35:00
12:55 AM,34.5,25.9,71,30.20,10.0,North,8.1,-,N/A,,Clear,10,2012-10-29 05:55:00
1:15 AM,34.5,26.2,72,30.20,10.0,North,9.2,-,N/A,,Clear,360,2012-10-29 06:15:00
1:35 AM,34.3,26.2,72,30.19,10.0,North,8.1,-,N/A,,Clear,360,2012-10-29 06:35:00
1:55 AM,33.6,26.4,75,30.20,10.0,North,8.1,-,N/A,,Clear,10,2012-10-29 06:55:00
2:15 AM,33.6,26.4,75,30.20,10.0,North,8.1,-,N/A,,Clear,360,2012-10-29 07:15:00
2:35 AM,33.6,26.6,75,30.19,10.0,North,8.1,-,N/A,,Clear,360,2012-10-29 07:35:00
2:55 AM,33.8,26.6,75,30.19,10.0,North,8.1,-,N/A,,Clear,360,2012-10-29 07:55:00
3:15 AM,34.0,26.8,75,30.19,10.0,North,10.4,-,N/A,,Clear,360,2012-10-29 08:15:00
3:35 AM,34.2,27.0,75,30.19,10.0,North,9.2,-,N/A,,Clear,360,2012-10-29 08:35:00
4:15 AM,34.3,26.6,73,30.19,10.0,North,9.2,-,N/A,,Clear,10,2012-10-29 09:15:00
4:35 AM,34.2,26.4,73,30.19,10.0,North,9.2,-,N/A,,Clear,360,2012-10-29 09:35:00
4:55 AM,34.2,26.1,72,30.20,10.0,North,11.5,-,N/A,,Clear,360,2012-10-29 09:55:00
5:15 AM,34.9,26.2,71,30.20,10.0,North,10.4,-,N/A,,Clear,360,2012-10-29 10:15:00
5:55 AM,35.4,25.5,67,30.19,10.0,North,13.8,-,N/A,,Clear,10,2012-10-29 10:55:00
6:15 AM,36.1,24.8,63,30.19,10.0,NNE,15.0,21.9,N/A,,Clear,20,2012-10-29 11:15:00
6:35 AM,36.3,24.3,62,30.19,10.0,NNE,13.8,-,N/A,,Clear,20,2012-10-29 11:35:00
7:15 AM,33.8,25.3,71,30.19,10.0,North,8.1,-,N/A,,Clear,350,2012-10-29 12:15:00
8:35 AM,36.1,30.7,81,30.20,10.0,North,9.2,-,N/A,,Clear,360,2012-10-29 13:35:00
8:55 AM,38.7,31.8,76,30.19,10.0,North,10.4,-,N/A,,Clear,360,2012-10-29 13:55:00
9:15 AM,40.6,32.9,74,30.19,10.0,North,12.7,-,N/A,,Clear,360,2012-10-29 14:15:00
9:35 AM,43.3,33.6,69,30.18,10.0,North,16.1,21.9,N/A,,Clear,10,2012-10-29 14:35:00
9:55 AM,45.7,32.4,60,30.18,10.0,North,23.0,29.9,N/A,,Clear,10,2012-10-29 14:55:00
10:15 AM,46.4,28.6,50,30.18,10.0,North,25.3,34.5,N/A,,Clear,10,2012-10-29 15:15:00
10:35 AM,47.1,27.5,47,30.18,10.0,North,20.7,27.6,N/A,,Clear,10,2012-10-29 15:35:00
10:55 AM,47.7,26.6,44,30.17,10.0,North,26.5,33.4,N/A,,Clear,360,2012-10-29 15:55:00
11:15 AM,48.4,25.9,42,30.17,10.0,North,26.5,29.9,N/A,,Clear,360,2012-10-29 16:15:00
11:35 AM,49.3,24.8,38,30.17,10.0,North,27.6,35.7,N/A,,Clear,10,2012-10-29 16:35:00
11:55 AM,49.8,23.9,36,30.17,10.0,North,27.6,33.4,N/A,,Clear,10,2012-10-29 16:55:00
12:15 PM,49.3,25.2,39,30.15,10.0,North,25.3,32.2,N/A,,Clear,360,2012-10-29 17:15:00
12:35 PM,48.6,24.6,39,30.14,10.0,North,26.5,36.8,N/A,,Clear,360,2012-10-29 17:35:00
12:55 PM,48.7,25.7,41,30.14,10.0,North,21.9,28.8,N/A,,Clear,350,2012-10-29 17:55:00
1:15 PM,48.9,26.8,42,30.13,10.0,North,27.6,35.7,N/A,,Clear,350,2012-10-29 18:15:00
1:55 PM,49.3,26.2,41,30.12,10.0,North,26.5,33.4,N/A,,Clear,360,2012-10-29 18:55:00
2:15 PM,49.8,27.9,43,30.11,10.0,North,25.3,31.1,N/A,,Clear,360,2012-10-29 19:15:00
2:35 PM,50.2,28.4,43,30.10,10.0,North,25.3,32.2,N/A,,Clear,360,2012-10-29 19:35:00
2:55 PM,49.6,30.4,48,30.10,10.0,North,26.5,39.1,N/A,,Clear,350,2012-10-29 19:55:00
3:15 PM,49.1,31.6,51,30.09,10.0,North,23.0,35.7,N/A,,Clear,350,2012-10-29 20:15:00
3:35 PM,48.6,30.9,51,30.09,10.0,North,27.6,35.7,N/A,,Clear,350,2012-10-29 20:35:00
3:55 PM,48.0,31.8,54,30.08,10.0,North,26.5,34.5,N/A,,Scattered Clouds,360,2012-10-29 20:55:00
4:15 PM,47.7,32.7,56,30.08,10.0,North,24.2,-,N/A,,Clear,350,2012-10-29 21:15:00
4:35 PM,47.1,33.1,58,30.08,10.0,North,29.9,36.8,N/A,,Scattered Clouds,350,2012-10-29 21:35:00
4:55 PM,46.6,33.4,60,30.07,10.0,NNW,21.9,33.4,N/A,,Scattered Clouds,340,2012-10-29 21:55:00
5:15 PM,46.2,33.4,61,30.07,10.0,NNW,20.7,33.4,N/A,,Scattered Clouds,340,2012-10-29 22:15:00
5:35 PM,45.7,33.8,63,30.06,10.0,North,24.2,33.4,N/A,,Scattered Clouds,350,2012-10-29 22:35:00
5:55 PM,45.3,33.8,64,30.05,10.0,NNW,23.0,31.1,N/A,,Scattered Clouds,340,2012-10-29 22:55:00
6:15 PM,45.1,33.8,65,30.05,10.0,NNW,23.0,32.2,N/A,,Clear,340,2012-10-29 23:15:00
6:35 PM,45.0,33.6,64,30.04,10.0,NNW,21.9,32.2,N/A,,Scattered Clouds,340,2012-10-29 23:35:00
6:55 PM,44.8,33.4,64,30.03,10.0,NNW,24.2,33.4,N/A,,Scattered Clouds,340,2012-10-29 23:55:00
7:15 PM,44.8,33.1,64,30.03,10.0,North,24.2,33.4,N/A,,Scattered Clouds,350,2012-10-30 00:15:00
7:35 PM,44.8,32.2,61,30.02,10.0,North,27.6,34.5,N/A,,Clear,360,2012-10-30 00:35:00
10:55 PM,44.8,30.0,56,29.93,10.0,North,33.4,41.4,N/A,,Scattered Clouds,360,2012-10-30 03:55:00
11:15 PM,44.4,29.7,56,29.92,10.0,North,25.3,31.1,N/A,,Scattered Clouds,360,2012-10-30 04:15:00
11:35 PM,44.2,29.7,57,29.91,10.0,North,26.5,34.5,N/A,,Scattered Clouds,360,2012-10-30 04:35:00